Home   Weather   Kiruna   Past weeks

Flag for Sweden Past Weather in Kiruna, Sweden — Yesterday and Last 2 Weeks

34 °F

Passing clouds.

Feels Like: 27 °F
Forecast: 29 / 32 °F
Wind: 8 mph from South

Location: Kiruna Airport

Current Time: Oct 21, 2016 at 10:18:23 PM

Latest Report: Oct 21, 2016 at 9:50 PM

Visibility: N/A

Pressure: 30.54 "Hg (28.58 "Hg at 532m altitude)

Humidity: 93%

Dew Point: 32 °F

Location of KirunaLocation

Past Weather in Kiruna — Graph


Kiruna Temperature Yesterday

Maximum temperature yesterday: 36 °F (at 2:20 PM)
Minimum temperature yesterday: 21 °F (at 1:20 AM)
Average temperature yesterday: 30 °F

High & Low Weather Summary for the Past Weeks

High48 °F (Oct 7, 1:20 PM)100% (Oct 7, 1:20 AM)30.74 "Hg (Oct 7, 1:20 AM)
Low16 °F (Oct 16, 6:20 AM)62% (Oct 12, 1:50 PM)30.04 "Hg (Oct 18, 3:50 PM)
Average31 °F95%30.45 "Hg
* Reported Oct 6 8:20 PM — Oct 21 8:50 PM, Kiruna, Weather by CustomWeather, © 2016

Note: Actual official high and low records may vary slightly from our data, if they occured in-between our weather recording intervals... More about our weather records


Kiruna Weather History for the Previous 24 Hours

Scroll right to see more
Time TempWeatherWind HumidityBarometerVisibility
8:50 PM
Fri, Oct 21
34 °FPartly cloudy.9 mph100%30.54 "HgN/A
8:20 PM34 °FPartly cloudy.8 mph100%30.54 "HgN/A
7:50 PM34 °FPartly cloudy.8 mph100%30.54 "HgN/A
7:20 PM36 °FPartly cloudy.8 mph93%30.51 "HgN/A
6:50 PM34 °FPartly cloudy.7 mph100%30.51 "HgN/A
6:20 PM34 °FPartly cloudy.7 mph100%30.51 "HgN/A
5:50 PM34 °FPartly cloudy.6 mph100%30.51 "HgN/A
5:20 PM36 °FPassing clouds.6 mph93%30.51 "HgN/A
4:50 PM36 °FPartly cloudy.7 mph100%30.51 "HgN/A
4:20 PM36 °FPartly sunny.7 mph100%30.51 "HgN/A
3:50 PM36 °FMostly cloudy.8 mph100%30.51 "HgN/A
3:20 PM36 °FPartly sunny.10 mph100%30.51 "HgN/A
2:50 PM36 °FPartly sunny.10 mph100%30.51 "HgN/A
2:20 PM36 °FMostly cloudy.10 mph100%30.51 "HgN/A
1:50 PM37 °FPartly sunny.8 mph93%30.51 "HgN/A
1:20 PM36 °FLow clouds.8 mph100%30.51 "HgN/A
12:50 PM36 °FPartly sunny.6 mph100%30.51 "HgN/A
12:20 PM36 °FLow clouds.7 mph100%30.51 "HgN/A
11:50 AM36 °FLow clouds.10 mph93%30.51 "HgN/A
11:20 AM36 °FFog.8 mph100%30.51 "Hg5 mi
10:50 AM34 °FFog.7 mph100%30.51 "Hg5 mi
10:20 AM34 °FLow clouds.7 mph100%30.51 "HgN/A
9:50 AM34 °FLow clouds.6 mph100%30.51 "HgN/A
9:20 AM34 °FLow clouds.7 mph100%30.51 "HgN/A
8:50 AM34 °FFog.7 mph100%30.48 "Hg5 mi
8:20 AM34 °FLow clouds.8 mph100%30.48 "Hg6 mi
7:50 AM34 °FLow clouds.7 mph100%30.48 "HgN/A
7:20 AM34 °FLow clouds.6 mph100%30.48 "HgN/A
6:50 AM34 °FFog.6 mph100%30.48 "Hg2 mi
6:20 AM32 °FLow clouds.3 mph100%30.48 "HgN/A
5:50 AM32 °FLow clouds.2 mph100%30.48 "HgN/A
5:20 AM32 °FLow clouds.No wind100%30.48 "HgN/A
4:50 AM32 °FLight snow. Low clouds.2 mph100%30.48 "HgN/A
4:20 AM32 °FOvercast.2 mph93%30.48 "HgN/A
3:50 AM32 °FMostly cloudy.2 mph100%30.48 "HgN/A
3:20 AM32 °FSnow flurries. Low clouds.3 mph100%30.48 "Hg3 mi
2:50 AM32 °FMostly cloudy.3 mph100%30.48 "HgN/A
2:20 AM30 °FSnow flurries. Low clouds.3 mph100%30.48 "Hg6 mi
1:50 AM30 °FLight snow. Mostly cloudy.2 mph100%30.48 "HgN/A
1:20 AM30 °FLight snow. Partly cloudy.3 mph100%30.48 "Hg2 mi
12:50 AM30 °FLight snow. Partly cloudy.2 mph100%30.48 "Hg3 mi
12:20 AM30 °FMostly cloudy.No wind100%30.51 "Hg2 mi
11:50 PM
Thu, Oct 20
30 °FOvercast.2 mph100%30.51 "HgN/A
11:20 PM30 °FMostly cloudy.2 mph100%30.51 "HgN/A
10:50 PM30 °FLight snow. Ice fog.3 mph100%30.48 "Hg3 mi
10:20 PM32 °FLight freezing rain. Passing clouds.3 mph93%30.48 "Hg5 mi
Weather by CustomWeather, © 2016

See weather overviewHow to use our weather pages